Weather History for Cushing, OK

Change the Weather History Date:

Saturday, December 15, 2012

  Actual Average Record
Temperature  
Mean Temperature 52 °F -  
Max Temperature 62 °F 49 °F 75 °F (1948)
Min Temperature 41 °F 27 °F -2 °F (1989)
Degree Days  
Heating Degree Days 14    
Growing Degree Days 2 (Base 50)    
Moisture  
Dew Point 41 °F    
Average Humidity 74    
Maximum Humidity 100    
Minimum Humidity 48    
Precipitation  
Precipitation 0.00 in - - ()
Sea Level Pressure  
Sea Level Pressure 29.72 in    
Wind  
Wind Speed 10 mph (SW)    
Max Wind Speed 17 mph    
Max Gust Speed 24 mph    
Visibility 10 miles    
Events      
Averages and records for this station are not official NWS values.
T = Trace of Precipitation, MM = Missing Value Source: NWS Daily Summary

Daily Weather History Graph

Daily Weather History Graph

Search for Another Location

Airport:

Trip Planner

Search our weather history database for the weather conditions in past years. The results will help you decide how hot, cold, wet, or windy it might be!

Date:

Astronomy

Dec. 15, 2012 Rise Set
Actual Time 7:30 AM CST 5:14 PM CST
Civil Twilight 7:02 AM CST 5:43 PM CST
Nautical Twilight 6:29 AM CST 6:15 PM CST
Astronomical Twilight 5:58 AM CST 6:46 PM CST
Moon 9:27 AM CST (12/15) 8:15 PM CST (12/15)
Length of Visible Light 10h 41m
Length of Day
9h 43m
Waxing Crescent, 8% of the Moon is Illuminated
Dec 15
Waxing Crescent
Dec 19
First Quarter
Dec 28
Full
Jan 4
Last Quarter
Jan 11
New

Hourly Weather History & Observations

Time (CST) Temp. Windchill Dew Point Humidity Pressure Visibility Wind Dir Wind Speed Gust Speed Precip Events Conditions
12:15 AM 48.2 °F - 48.2 °F 100% 29.71 in 10.0 mi South 13.8 mph 20.7 mph N/A   Overcast
12:35 AM 48.2 °F - 48.2 °F 100% 29.70 in 10.0 mi South 12.7 mph 20.7 mph N/A   Scattered Clouds
12:55 AM 46.4 °F 41.1 °F 46.4 °F 100% 29.69 in 10.0 mi South 11.5 mph 16.1 mph N/A   Clear
1:15 AM 46.4 °F 40.4 °F 46.4 °F 100% 29.67 in 10.0 mi South 13.8 mph - N/A   Clear
1:35 AM 46.4 °F 40.4 °F 46.4 °F 100% 29.67 in 10.0 mi South 13.8 mph - N/A   Clear
1:55 AM 46.4 °F 40.7 °F 46.4 °F 100% 29.67 in 10.0 mi South 12.7 mph - N/A   Clear
2:15 AM 48.2 °F - 46.4 °F 93% 29.66 in 10.0 mi SSW 12.7 mph - N/A   Clear
2:35 AM 46.4 °F 39.8 °F 46.4 °F 100% 29.66 in 10.0 mi SSW 16.1 mph - N/A   Clear
2:55 AM 48.2 °F - 46.4 °F 93% 29.66 in 10.0 mi SSW 16.1 mph - N/A   Clear
3:15 AM 48.2 °F - 44.6 °F 87% 29.65 in 10.0 mi SSW 15.0 mph - N/A   Clear
3:35 AM 50.0 °F - 44.6 °F 82% 29.65 in 10.0 mi SSW 15.0 mph 19.6 mph N/A   Clear
3:55 AM 50.0 °F - 44.6 °F 82% 29.65 in 10.0 mi SSW 12.7 mph 23.0 mph N/A   Clear
4:15 AM 50.0 °F - 42.8 °F 76% 29.64 in 10.0 mi SSW 15.0 mph 21.9 mph N/A   Clear
4:35 AM 50.0 °F - 42.8 °F 76% 29.64 in 10.0 mi SSW 17.3 mph 24.2 mph N/A   Clear
4:55 AM 50.0 °F - 42.8 °F 76% 29.66 in 10.0 mi SW 11.5 mph - N/A   Clear
5:15 AM 50.0 °F - 41.0 °F 71% 29.67 in 10.0 mi SW 11.5 mph - N/A   Clear
5:35 AM 48.2 °F - 41.0 °F 76% 29.67 in 10.0 mi SW 11.5 mph 18.4 mph N/A   Clear
5:55 AM 48.2 °F - 41.0 °F 76% 29.68 in 10.0 mi SW 10.4 mph 16.1 mph N/A   Clear
6:15 AM 48.2 °F - 41.0 °F 76% 29.68 in 10.0 mi SW 12.7 mph - N/A   Clear
6:35 AM 46.4 °F 41.9 °F 39.2 °F 76% 29.70 in 10.0 mi SW 9.2 mph 17.3 mph N/A   Clear
6:55 AM 46.4 °F 41.9 °F 39.2 °F 76% 29.72 in 10.0 mi SSW 9.2 mph - N/A   Clear
7:15 AM 46.4 °F 42.9 °F 39.2 °F 76% 29.72 in 10.0 mi WSW 6.9 mph - N/A   Clear
7:35 AM 46.4 °F 41.9 °F 39.2 °F 76% 29.73 in 10.0 mi SW 9.2 mph - N/A   Clear
8:15 AM 46.4 °F 41.9 °F 39.2 °F 76% 29.74 in 10.0 mi SW 9.2 mph - N/A   Clear
8:35 AM 46.4 °F 41.1 °F 39.2 °F 76% 29.74 in 10.0 mi SSW 11.5 mph - N/A   Clear
8:55 AM 48.2 °F - 39.2 °F 71% 29.74 in 10.0 mi SW 10.4 mph 17.3 mph N/A   Clear
9:15 AM 50.0 °F - 41.0 °F 71% 29.75 in 10.0 mi WSW 12.7 mph 16.1 mph N/A   Clear
9:35 AM 51.8 °F - 41.0 °F 67% 29.75 in 10.0 mi WSW 12.7 mph 19.6 mph N/A   Clear
9:55 AM 53.6 °F - 41.0 °F 62% 29.76 in 10.0 mi WSW 11.5 mph 17.3 mph N/A   Clear
10:15 AM 53.6 °F - 41.0 °F 62% 29.77 in 10.0 mi WSW 11.5 mph 17.3 mph N/A   Clear
10:35 AM 55.4 °F - 41.0 °F 58% 29.77 in 10.0 mi WSW 9.2 mph - N/A   Clear
10:55 AM 57.2 °F - 41.0 °F 55% 29.77 in 10.0 mi WSW 9.2 mph - N/A   Clear
11:15 AM 57.2 °F - 41.0 °F 55% 29.77 in 10.0 mi West 11.5 mph 19.6 mph N/A   Clear
11:35 AM 57.2 °F - 41.0 °F 55% 29.77 in 10.0 mi WSW 11.5 mph - N/A   Clear
11:55 AM 59.0 °F - 42.8 °F 55% 29.76 in 10.0 mi WSW 12.7 mph 17.3 mph N/A   Clear
12:15 PM 59.0 °F - 42.8 °F 55% 29.75 in 10.0 mi SW 11.5 mph - N/A   Clear
12:35 PM 60.8 °F - 42.8 °F 52% 29.75 in 10.0 mi WSW 12.7 mph - N/A   Clear
12:55 PM 60.8 °F - 42.8 °F 52% 29.73 in 10.0 mi SW 11.5 mph 16.1 mph N/A   Clear
1:15 PM 60.8 °F - 42.8 °F 52% 29.72 in 10.0 mi SW 9.2 mph - N/A   Clear
1:35 PM 62.6 °F - 42.8 °F 48% 29.72 in 10.0 mi SSW 10.4 mph - N/A   Clear
1:55 PM 60.8 °F - 42.8 °F 52% 29.72 in 10.0 mi South 10.4 mph - N/A   Clear
2:15 PM 60.8 °F - 42.8 °F 52% 29.71 in 10.0 mi SSW 11.5 mph - N/A   Clear
2:35 PM 60.8 °F - 42.8 °F 52% 29.72 in 10.0 mi SSW 8.1 mph - N/A   Clear
2:55 PM 60.8 °F - 42.8 °F 52% 29.71 in 10.0 mi SW 11.5 mph - N/A   Clear
3:15 PM 59.0 °F - 42.8 °F 55% 29.70 in 10.0 mi SSW 8.1 mph - N/A   Clear
3:35 PM 59.0 °F - 42.8 °F 55% 29.71 in 10.0 mi SW 8.1 mph - N/A   Clear
3:55 PM 57.2 °F - 42.8 °F 59% 29.72 in 10.0 mi SW 5.8 mph - N/A   Clear
4:15 PM 55.4 °F - 42.8 °F 63% 29.72 in 10.0 mi SW 4.6 mph - N/A   Clear
4:35 PM 55.4 °F - 41.0 °F 58% 29.73 in 10.0 mi SSW 5.8 mph - N/A   Clear
4:55 PM 53.6 °F - 41.0 °F 62% 29.73 in 10.0 mi SSW 4.6 mph - N/A   Clear
5:15 PM 51.8 °F - 41.0 °F 67% 29.74 in 10.0 mi SSW 3.5 mph - N/A   Clear
5:35 PM 50.0 °F - 41.0 °F 71% 29.73 in 10.0 mi South 4.6 mph - N/A   Clear
5:55 PM 50.0 °F - 41.0 °F 71% 29.73 in 10.0 mi South 3.5 mph - N/A   Clear
6:15 PM 46.4 °F - 39.2 °F 76% 29.74 in 10.0 mi Calm Calm - N/A   Clear
6:35 PM 46.4 °F 45.2 °F 41.0 °F 81% 29.75 in 10.0 mi South 3.5 mph - N/A   Clear
6:55 PM 46.4 °F 45.2 °F 41.0 °F 81% 29.74 in 10.0 mi SSW 3.5 mph - N/A   Clear
7:15 PM 44.6 °F - 39.2 °F 81% 29.75 in 10.0 mi Calm Calm - N/A   Clear
7:35 PM 46.4 °F - 39.2 °F 76% 29.75 in 10.0 mi Calm Calm - N/A   Clear
7:55 PM 46.4 °F - 39.2 °F 76% 29.75 in 10.0 mi Calm Calm - N/A   Clear
8:15 PM 44.6 °F - 39.2 °F 81% 29.75 in 10.0 mi Calm Calm - N/A   Clear
8:35 PM 42.8 °F - 37.4 °F 81% 29.74 in 10.0 mi Calm Calm - N/A   Clear
8:55 PM 41.0 °F - 37.4 °F 87% 29.75 in 10.0 mi Calm Calm - N/A   Clear
9:15 PM 41.0 °F - 37.4 °F 87% 29.74 in 10.0 mi Calm Calm - N/A   Clear
9:35 PM 41.0 °F - 37.4 °F 87% 29.73 in 10.0 mi Calm Calm - N/A   Clear
9:55 PM 41.0 °F - 37.4 °F 87% 29.73 in 10.0 mi Calm Calm - N/A   Clear
10:15 PM 42.8 °F - 37.4 °F 81% 29.73 in 10.0 mi Calm Calm - N/A   Clear
10:35 PM 42.8 °F - 37.4 °F 81% 29.72 in 10.0 mi Calm Calm - N/A   Clear
10:55 PM 44.6 °F - 39.2 °F 81% 29.73 in 10.0 mi Calm Calm - N/A   Clear
11:15 PM 44.6 °F - 37.4 °F 76% 29.72 in 10.0 mi Calm Calm - N/A   Clear
11:35 PM 42.8 °F - 37.4 °F 81% 29.72 in 10.0 mi Calm Calm - N/A   Clear
11:55 PM 42.8 °F 41.1 °F 37.4 °F 81% 29.73 in 10.0 mi SSW 3.5 mph - N/A   Clear